This is the latest recevied weather packets stored in our database for station/object DL4NBA-1. If no packets are shown the sender has not sent any weather packets the latest 10 day(s).
| Time | Temp. | Humidity | Pressure | Rain* | Wind** | Luminosity | Snow |
|---|---|---|---|---|---|---|---|
| 1777842966 | 17.22° C | - | - | 0 mm | 4.02 m/s, 257° | - | - |
| 1777842668 | 17.78° C | - | - | 0 mm | 3.13 m/s, 255° | - | - |
| 1777842366 | 17.78° C | - | - | 0 mm | 3.58 m/s, 259° | - | - |
| 1777842068 | 17.22° C | - | - | 0 mm | 2.24 m/s, 248° | - | - |
| 1777841769 | 17.78° C | - | - | 0 mm | 2.24 m/s, 260° | - | - |
| 1777841470 | 17.78° C | - | - | 0 mm | 2.24 m/s, 246° | - | - |
| 1777841172 | 17.78° C | - | - | 0 mm | 2.24 m/s, 301° | - | - |
| 1777840869 | 17.78° C | - | - | 0 mm | 2.24 m/s, 259° | - | - |
| 1777840571 | 17.22° C | - | - | 0 mm | 2.24 m/s, 277° | - | - |
| 1777840272 | 17.22° C | - | - | 0 mm | 3.13 m/s, 276° | - | - |
| 1777839973 | 17.22° C | - | - | 0 mm | 2.68 m/s, 280° | - | - |
| 1777839675 | 17.22° C | - | - | 0 mm | 2.68 m/s, 273° | - | - |
| 1777839371 | 16.67° C | - | - | 0 mm | 2.68 m/s, 253° | - | - |
| 1777839072 | 16.11° C | - | - | 0 mm | 1.34 m/s, 288° | - | - |
| 1777838774 | 16.11° C | - | - | 0 mm | 1.34 m/s, 211° | - | - |
| 1777838475 | 15.56° C | - | - | 0 mm | 1.34 m/s, 215° | - | - |
| 1777838176 | 16.11° C | - | - | 0 mm | 1.79 m/s, 221° | - | - |
| 1777837875 | 16.67° C | - | - | 0 mm | 1.79 m/s, 217° | - | - |
| 1777837278 | 16.11° C | - | - | 0 mm | 0 m/s | - | - |
| 1777836979 | 15° C | - | - | 0 mm | 0 m/s | - | - |
| 1777836080 | 16.11° C | - | - | 0 mm | 0 m/s | - | - |
| 1777835483 | 16.11° C | - | - | 0 mm | 0 m/s | - | - |
| 1777835184 | 16.11° C | - | - | 0 mm | 0 m/s | - | - |
| 1777834881 | 16.11° C | - | - | 0 mm | 0 m/s | - | - |
| 1777834583 | 16.11° C | - | - | 0 mm | 0 m/s | - | - |
* Rain latest hour (hover to see other rain measurements)
** Current wind speed in m/s (hover to see current wind gust speed)